This is the latest recevied weather packets stored in our database for station/object CE3MXM-13. If no packets are shown the sender has not sent any weather packets the latest 10 day(s).
| Time | Temp. | Humidity | Pressure | Rain* | Wind** | Luminosity | Snow |
|---|---|---|---|---|---|---|---|
| 1777499566 | 21.11° C | 57% | 1009.2 hPa | - | - | - | - |
| 1777499266 | 21.67° C | 54% | 1009.1 hPa | - | - | - | - |
| 1777498965 | 22.22° C | 52% | 1009.3 hPa | - | - | - | - |
| 1777498665 | 22.78° C | 51% | 1009.3 hPa | - | - | - | - |
| 1777498365 | 22.78° C | 50% | 1009.2 hPa | - | - | - | - |
| 1777498065 | 23.33° C | 49% | 1009 hPa | - | - | - | - |
| 1777497765 | 23.89° C | 48% | 1009.2 hPa | - | - | - | - |
| 1777497465 | 24.44° C | 47% | 1009 hPa | - | - | - | - |
| 1777497165 | 25° C | 47% | 1009 hPa | - | - | - | - |
| 1777496865 | 25.56° C | 45% | 1009 hPa | - | - | - | - |
| 1777496565 | 26.11° C | 44% | 1009.1 hPa | - | - | - | - |
| 1777496264 | 26.11° C | 45% | 1009 hPa | - | - | - | - |
| 1777495964 | 25.56° C | 44% | 1008.9 hPa | - | - | - | - |
| 1777495664 | 26.11° C | 44% | 1009 hPa | - | - | - | - |
| 1777495364 | 26.11° C | 44% | 1009 hPa | - | - | - | - |
| 1777495064 | 26.11° C | 42% | 1008.9 hPa | - | - | - | - |
| 1777494764 | 26.67° C | 43% | 1008.8 hPa | - | - | - | - |
| 1777494464 | 26.67° C | 43% | 1009 hPa | - | - | - | - |
| 1777494164 | 26.11° C | 44% | 1009.1 hPa | - | - | - | - |
| 1777493864 | 26.67° C | 42% | 1009.1 hPa | - | - | - | - |
| 1777493564 | 26.67° C | 43% | 1008.9 hPa | - | - | - | - |
| 1777493263 | 26.67° C | 44% | 1009 hPa | - | - | - | - |
| 1777492963 | 26.67° C | 42% | 1009.2 hPa | - | - | - | - |
| 1777492663 | 26.67° C | 42% | 1009 hPa | - | - | - | - |
| 1777492363 | 26.67° C | 42% | 1009.1 hPa | - | - | - | - |
* Rain since midnight (hover to see other rain measurements)
** Current wind speed in m/s (hover to see current wind gust speed)